Location: ???? ???? ?????
(31.2680°N, 31.7283°E)
Time: 19:56:16
(UTC+00:00)

SPOT 1/Viking Rocket - Pass Details

Date: 13 July 2020
Orbit: 778 x 793 km, 98.5° (Epoch: 05 August)

Event Time Altitude Azimuth Distance (km) Brightness Sun altitude
Exits shadow 19:03:17 48° 104° (ESE) 1,008 3.7 -22.4°
Maximum altitude 19:04:01 53° 74° (ENE) 957 3.8 -22.5°
Drops below altitude 10° 19:09:02 10° 358° (N) 2,345 6.6 -23.2°
Sets 19:11:25 0° 354° (N) 3,279 7.6 -23.6°
